Terug naar catalogus

STARLINK-31626

ActiefCommunicatieVLEO
NORAD 59392·PAYLOAD·🇺🇸 United States

Gelanceerd Apr 2, 2024 vanaf Vandenberg Space Force Base

Loading…

Volgende Passages (komende 24 uur)

TLE

VersSource: CelesTrak SupGP

Epoch: Sep 14, 2026, 21:35 UTC

1 59392C 24062U   26257.89979167 -.00004768  00000+0 -14091-3 0  2571
2 59392  53.1573  94.0214 0001369  85.2355 127.2439 15.34386885    11

Volg STARLINK-31626 in realtime met AllMySat

Download on the App Store